« Back
NWS Peachtree City, Ga » Text Product » GA Regional Weather Roundup


Printer-friendly Version
Current Version              Previous Versions:   1  2  3  4  5  6  7  8  9  

Regional Weather Roundup

214
ASUS42 KFFC 251403
RWRGA
WEATHER ROUNDUP FOR GEORGIA
NATIONAL WEATHER SERVICE PEACHTREE CITY GA
1000 AM EDT SAT APR 25 2015

NOTE: "FAIR" INDICATES FEW OR NO CLOUDS BELOW 12,000 FEET WITH NO
SIGNIFICANT WEATHER AND/OR OBSTRUCTIONS TO VISIBILITY.

* = USE WITH CAUTION. THE STATIONS MARKED WITH AN ASTERISK MAY NOT
REPORT WEATHER SUCH AS PRECIPITATION, FOG, OR THUNDER AND ARE NOT
QUALITY CONTROLLED BY NWS.

THE REMARK "TC" DENOTES TEMPERATURE READING IN DEGREES CELSIUS.

GAZ001>058-251500-
NORTH GEORGIA

CITY           SKY/WX    TMP DP  RH WIND       PRES   REMARKS
ATLANTA        CLOUDY    61  58  90 S8        29.81F FOG
ATHENS         CLOUDY    59  58  96 CALM      29.85F
CHAMBLEE       CLOUDY    61  59  93 S9        29.82S
PEACHTREE CITY LGT RAIN  62  60  93 SE8       29.82F
ROME           CLOUDY    60  58  92 S9        29.78S
WEST ATLANTA   CLOUDY    62  59  90 CALM      29.81F
GAINESVILLE    CLOUDY    56  55  97 E8        29.85F FOG
CARTERSVILLE   CLOUDY    62  59  90 VRB3      29.81S


CITY           SKY/WX    TMP DP  RH WIND       PRES   REMARKS
DALTON*        CLOUDY    61  61 100 S5        29.78R
LAWRENCEVILLE* CLOUDY    59  54  82 S6        29.83F FOG
MARIETTA       CLOUDY    62  62  99 SE9       29.81S FOG
KENNESAW*      LGT RAIN  61  59  94 S8        29.82  FOG
BLAIRSVILLE*     N/A     60  51  70 E3        29.80F
$$

GAZ059>098-102>109-251500-
CENTRAL GEORGIA

CITY           SKY/WX    TMP DP  RH WIND       PRES   REMARKS
AUGUSTA-BUSH   HVY RAIN  57  55  93 SE6       29.92F FOG
AUGUSTA-DANIEL HVY RAIN  58  55  90 SE8       29.91F FOG
COLUMBUS       CLOUDY    64  63  94 S6        29.81F
MACON          TSTM      60  60 100 SE8       29.84F FOG
ROBINS AFB     LGT RAIN  62  61  98 SE12      29.85F


CITY           SKY/WX    TMP DP  RH WIND       PRES   REMARKS
LAGRANGE*      CLOUDY    67  65  94 S5        29.82F
SYLVANIA*      CLOUDY    63  62  98 CALM      29.92R
MILLEDGEVILLE* CLOUDY    61  61 100 CALM      29.86F
$$

GAZ099>101-110>166-251500-
SOUTH GEORGIA

CITY           SKY/WX    TMP DP  RH WIND       PRES   REMARKS
SAVANNAH       CLOUDY    71  64  78 S10       29.90S
VALDOSTA       CLOUDY    72  67  84 S8        29.90R
ALMA           CLOUDY    68  64  87 S10       29.87F
ST SIMONS      CLOUDY    73  67  81 S8        29.90F
FT STEWART     CLOUDY    68  65  88 VRB3      29.87S
ALBANY         LGT RAIN  71  68  90 SW15G23   29.87S
HUNTER AFB     CLOUDY    72  67  84 S8        29.87F
MOODY AFB      CLOUDY    70  66  88 S8        29.88S
BRUNSWICK      CLOUDY    75  66  73 S9G16     29.90F


CITY           SKY/WX    TMP DP  RH WIND       PRES   REMARKS
BAINBRIDGE*    TSTM      73  72  94 S9G16     29.89F
MOULTRIE*      CLOUDY    68  68 100 SW8       29.92R
VIDALIA*       CLOUDY    64  63  94 S7        29.83F
WAYCROSS*      CLOUDY    74  69  84 SW15G22   29.89R
DOUGLAS*       CLOUDY    70  64  83 S7        29.88F
$$



USA.gov is the U.S. government's official web portal to all federal, state and local government web resources and services.